Indian Springs, NV

9:03 AM PDT on April 26, 2017 (GMT -0700)
Indian Springs Air Force Auxiliary

Weather History for KINS - February, 2013

Change the Weather History Date:

Friday, February 22, 2013

  Actual Average (KDRA) Record (KDRA)
Temperature  
Mean Temperature 40 °F -  
Max Temperature 55 °F 55 °F 76 °F (1995)
Min Temperature 25 °F 36 °F 26 °F (1997)
Degree Days  
Heating Degree Days 25    
Moisture  
Dew Point 10 °F    
Average Humidity 29    
Maximum Humidity 45    
Minimum Humidity 17    
Precipitation  
Precipitation 0.00 in - - ()
Sea Level Pressure  
Sea Level Pressure 30.11 in    
Wind  
Wind Speed 4 mph (SSW)    
Max Wind Speed 15 mph    
Max Gust Speed -    
Visibility 10 miles    
Events      
Averages and records for this station are not official NWS values.
T = Trace of Precipitation, MM = Missing Value Source: NWS Daily Summary

Daily Weather History Graph

Daily Weather History Graph

Search for Another Location

Airport or City:

Trip Planner

Search our weather history database for the weather conditions in past years. The results will help you decide how hot, cold, wet, or windy it might be!

Date:

Astronomy

Feb. 22, 2013 Rise Set
Actual Time 6:21 AM PST 5:30 PM PST
Civil Twilight 5:55 AM PST 5:56 PM PST
Nautical Twilight 5:25 AM PST 6:26 PM PST
Astronomical Twilight 4:55 AM PST 6:56 PM PST
Moon 2:49 PM PST (2/22) 4:06 AM PST (2/22)
Length of Visible Light 12h 01m
Length of Day
11h 08m
Waxing Gibbous, 91% of the Moon is Illuminated
Feb 22
Waxing Gibbous
Feb 25
Full
Mar 4
Last Quarter
Mar 11
New
Mar 19
First Quarter

Hourly Weather History & Observations

Time (PST) Temp. Windchill Dew Point Humidity Pressure Visibility Wind Dir Wind Speed Gust Speed Precip Events Conditions
12:58 AM 36.1 °F - 6.6 °F 29% 30.07 in 10.0 mi SSW 2.3 mph - N/A   Clear
1:58 AM 32.4 °F 29.1 °F 7.5 °F 35% 30.08 in 10.0 mi SSW 3.5 mph - N/A   Clear
2:58 AM 28.0 °F - 6.4 °F 40% 30.08 in 10.0 mi WSW 2.3 mph - N/A   Clear
3:58 AM 28.0 °F - 6.8 °F 41% 30.09 in 10.0 mi WSW 2.3 mph - N/A   Clear
4:58 AM 26.2 °F 20.7 °F 7.2 °F 44% 30.10 in 10.0 mi WSW 4.6 mph - N/A   Clear
5:58 AM 26.6 °F - 7.3 °F 44% 30.10 in 10.0 mi SW 2.3 mph - N/A   Clear
6:58 AM 25.7 °F - 7.0 °F 45% 30.13 in 10.0 mi Calm Calm - N/A   Clear
7:58 AM 34.2 °F 31.2 °F 9.3 °F 36% 30.16 in 10.0 mi NW 3.5 mph - N/A   Clear
8:58 AM 39.0 °F - 9.3 °F 29% 30.17 in 10.0 mi North 1.2 mph - N/A   Clear
9:58 AM 43.0 °F - 9.3 °F 25% 30.17 in 10.0 mi NNE 2.3 mph - N/A   Clear
10:58 AM 46.4 °F - 9.5 °F 22% 30.18 in 10.0 mi Calm Calm - N/A   Clear
11:58 AM 48.7 °F - 10.8 °F 22% 30.16 in 10.0 mi Calm Calm - N/A   Clear
12:58 PM 51.4 °F - 10.8 °F 20% 30.12 in 10.0 mi Variable 1.2 mph - N/A   Clear
1:58 PM 53.1 °F - 10.8 °F 18% 30.09 in 10.0 mi Variable 3.5 mph - N/A   Clear
2:58 PM 54.3 °F - 11.8 °F 18% 30.08 in 10.0 mi SE 4.6 mph - N/A   Clear
3:58 PM 55.8 °F - 10.9 °F 17% 30.09 in 10.0 mi WNW 12.7 mph - N/A   Clear
4:58 PM 54.3 °F - 10.6 °F 18% 30.08 in 10.0 mi West 6.9 mph - N/A   Clear
5:58 PM 52.2 °F - 11.3 °F 20% 30.08 in 10.0 mi WSW 5.8 mph - N/A   Clear
6:58 PM 46.9 °F - 12.0 °F 24% 30.09 in 10.0 mi East 15.0 mph - N/A   Clear
7:58 PM 45.9 °F 40.8 °F 11.1 °F 25% 30.11 in 10.0 mi East 10.4 mph - N/A   Clear
8:58 PM 44.8 °F 39.0 °F 12.0 °F 27% 30.12 in 10.0 mi East 11.5 mph - N/A   Clear
9:58 PM 41.7 °F 35.6 °F 12.0 °F 30% 30.10 in 10.0 mi ESE 10.4 mph - N/A   Clear
10:58 PM 39.7 °F 34.9 °F 12.7 °F 33% 30.10 in 10.0 mi South 6.9 mph - N/A   Clear
11:58 PM 40.1 °F - 12.6 °F 33% 30.09 in 10.0 mi South 2.3 mph - N/A   Clear